Content
SEND FEEDBACK

Daily
Averages
Monthly
Summary
Switzerland

GENEVA, SWITZERLAND


Home > Europe > Switzerland
Elevation: 1364 feet     Latitude: 46 15N     Longitude: 006 08E

WEATHER
 
SELECT A DAY
Number of Records: 305,866;   Date Range: 7/1/96 - 8/12/14
 
SHARE

PRINT THIS DATA

[ ← Previous Day ]
WEATHER ALMANAC - APRIL 1, 2013
[ Next Day → ]
[ °C ]   °F
Weather ElementAverageHighLow
Temperature39.1 °F46 °F (3:00 pm)34 °F (1:00 am)
Dewpoint30.2 °F37.4 °F (9:20 pm)26 °F (1:00 am)
Humidity68.6 %93 % (9:20 pm)38 % (3:00 pm)
Barometer29.63 in29.74 in (1:00 am)29.56 in (4:50 pm)
Wind Speed7 mph12.7 mph (3:00 pm)
Weather ElementAverage
Visibility4.7 mi
Wind DirectionNE (42.5 °)

Weather ElementTotal
Precipitation---
Heating Degree Days25 (Base 65)
Averaged from 65 records on April 1, 2013
WEATHER CONDITIONS BREAKOUT
WIND DIRECTION BREAKOUT
WEATHER BY HOUR - APRIL 1, 2013
[ °C ]   °F
Local TimeTemperatureDewpointHumidityBarometerVisibilityWind DirectionWind SpeedGust SpeedPrecipitationEventsConditions
12:20 AM37.4 °F26.6 °F65 %29.68 in5.0 miNorth (10°)6.9 mph
12:50 AM35.6 °F26.6 °F70 %29.68 in5.0 miVariable3.5 mph
1:00 AM34.0 °F26.0 °F64 %29.74 inNorth (10°)3.5 mph
1:20 AM35.6 °F26.6 °F70 %29.68 in5.0 miNNE (20°)4.6 mph
1:50 AM35.6 °F28.4 °F75 %29.68 in5.0 miNE (40°)9.2 mph
2:00 AM36.0 °F27.0 °F59 %29.72 in5.0 miNE (40°)10.4 mphHaze
2:20 AM35.6 °F28.4 °F75 %29.65 in4.3 miNNE (30°)10.4 mph
2:50 AM35.6 °F28.4 °F75 %29.65 in3.7 miNE (40°)10.4 mphScattered Clouds
3:00 AM36.0 °F29.0 °F66 %29.73 inNE (40°)11.5 mph
4:00 AM36.0 °F28.0 °F65 %29.71 inNNE (20°)6.9 mph
4:20 AM35.6 °F28.4 °F75 %29.65 in3.7 miNorth (360°)3.5 mphMostly Cloudy
4:50 AM35.6 °F28.4 °F75 %29.65 in3.7 miNorth (10°)4.6 mphMostly Cloudy
5:20 AM35.6 °F28.4 °F75 %29.65 in3.7 miNorth (10°)3.5 mphOvercast
5:50 AM35.6 °F28.4 °F75 %29.65 in3.7 miNorth (10°)3.5 mphMostly Cloudy
6:00 AM35.0 °F28.0 °F66 %29.70 inNorth4.6 mph
6:20 AM35.6 °F28.4 °F75 %29.62 in3.7 miVariable2.3 mphOvercast
6:50 AM35.6 °F28.4 °F75 %29.62 in3.7 miNNE (20°)4.6 mphOvercast
7:00 AM35.0 °F28.0 °F67 %29.68 inNNE (20°)5.8 mph
7:20 AM35.6 °F28.4 °F75 %29.62 in3.1 miNNE (20°)5.8 mphOvercast
7:50 AM35.6 °F28.4 °F75 %29.62 in3.7 miNorth (10°)5.8 mphOvercast
8:00 AM35.0 °F29.0 °F71 %29.67 in3.0 miNorth (10°)5.8 mphMist
8:20 AM35.6 °F30.2 °F81 %29.62 in3.7 miNorth (10°)4.6 mphOvercast
8:50 AM35.6 °F28.4 °F75 %29.62 in3.7 miNNE (20°)5.8 mphOvercast
9:00 AM36.0 °F28.0 °F65 %29.67 inNNE (20°)5.8 mph
9:20 AM35.6 °F28.4 °F75 %29.62 in4.3 miNNE (20°)5.8 mphOvercast
9:50 AM37.4 °F28.4 °F70 %29.62 in5.0 miNNE (20°)6.9 mphOvercast
10:00 AM37.0 °F27.0 °F57 %29.67 inNNE (20°)9.2 mph
10:20 AM37.4 °F28.4 °F70 %29.62 in5.0 miNNE (30°)8.1 mphOvercast
10:50 AM37.4 °F28.4 °F70 %29.62 in5.0 miNNE (20°)8.1 mphOvercast
11:20 AM39.2 °F26.6 °F61 %29.62 in5.6 miNNE (20°)6.9 mphMostly Cloudy
11:50 AM39.2 °F28.4 °F65 %29.62 in5.6 miNE (50°)9.2 mphScattered Clouds
12:00 PM40.0 °F28.0 °F51 %29.66 inNE (50°)11.5 mph
12:20 PM41.0 °F28.4 °F61 %29.62 in6.2 miNE (50°)8.1 mphScattered Clouds
12:50 PM41.0 °F28.4 °F61 %29.62 in6.2 miNE (40°)11.5 mphPartly Cloudy
1:00 PM41.0 °F27.0 °F44 %29.65 inNE (40°)11.5 mph
1:20 PM42.8 °F30.2 °F61 %29.59 in6.2 miNE (40°)11.5 mphPartly Cloudy
1:50 PM42.8 °F28.4 °F57 %29.59 in6.2 miNE (50°)10.4 mphPartly Cloudy
2:00 PM42.0 °F28.0 °F46 %29.64 in6.0 miNE (50°)11.5 mphHaze
2:20 PM42.8 °F28.4 °F57 %29.59 in6.2 miNE (40°)9.2 mphScattered Clouds
2:50 PM44.6 °F28.4 °F53 %29.59 in6.2 miNE (50°)11.5 mphScattered Clouds
3:00 PM46.0 °F29.0 °F38 %29.62 inNE (50°)12.7 mph
3:20 PM44.6 °F30.2 °F57 %29.59 in6.2 miNE (50°)11.5 mphScattered Clouds
3:50 PM44.6 °F30.2 °F57 %29.59 in6.2 miENE (60°)10.4 mphMostly Cloudy
4:00 PM44.0 °F30.0 °F46 %29.61 inNE (40°)10.4 mph
4:20 PM44.6 °F32.0 °F61 %29.59 in6.2 miNE (40°)9.2 mphMostly Cloudy
4:50 PM44.6 °F32.0 °F61 %29.56 in5.6 miNE (40°)8.1 mphMostly Cloudy
5:20 PM44.6 °F32.0 °F61 %29.56 in5.6 miNE (40°)10.4 mphMostly Cloudy
5:50 PM42.8 °F30.2 °F61 %29.56 in5.6 miNNE (30°)9.2 mphMostly Cloudy
6:00 PM43.0 °F30.0 °F49 %29.60 inNE (40°)8.1 mph
6:20 PM42.8 °F32.0 °F66 %29.56 in5.6 miNE (40°)5.8 mphMostly Cloudy
6:50 PM42.8 °F32.0 °F66 %29.56 in5.0 miNE (40°)6.9 mphMostly Cloudy
7:00 PM42.0 °F31.0 °F55 %29.61 inNNE (30°)9.2 mph
7:20 PM42.8 °F32.0 °F66 %29.59 in4.3 miNE (40°)6.9 mphRainLight Rain
7:50 PM41.0 °F35.6 °F81 %29.59 in4.3 miNNE (20°)5.8 mphRainLight Rain
8:00 PM40.0 °F34.0 °F72 %29.63 in4.0 miNNE (20°)5.8 mphRainLight Rain
8:20 PM39.2 °F35.6 °F87 %29.59 in3.7 miNE (50°)5.8 mphRainLight Rain Showers
8:50 PM39.2 °F35.6 °F87 %29.59 in3.7 miNNE (30°)4.6 mphRainLight Rain
9:00 PM40.0 °F36.0 °F79 %29.64 inNorth (10°)4.6 mph
9:20 PM39.2 °F37.4 °F93 %29.59 in3.7 miVariable1.2 mphMostly Cloudy
9:50 PM39.2 °F37.4 °F93 %29.59 in4.3 miVariable1.2 mphMostly Cloudy
10:00 PM40.0 °F37.0 °F85 %29.64 inWest (280°)2.3 mph
10:20 PM39.2 °F37.4 °F93 %29.59 in4.3 miVariable2.3 mphMostly Cloudy
10:50 PM39.2 °F37.4 °F93 %29.59 in4.3 miSW (230°)3.5 mphMostly Cloudy
11:20 PM39.2 °F37.4 °F93 %29.59 in4.3 miVariable2.3 mphMostly Cloudy
11:50 PM39.2 °F37.4 °F93 %29.59 in4.3 miSW (220°)3.5 mphMostly Cloudy
Hourly data recorded from LSGG, located miles away from Geneva, Switzerland







STORIES FROM OUR PARTNERS